Regional Weather Roundup
Issued by NWS

Home | Current Version | Previous Version | Graphics & Text | Print | Product List | Glossary On
Versions: 1 2 3 4 5 6 7 8 9 10 11 12 13 14 15 16 17 18 19 20 21 22 23 24 25 26 27 28 29 30 31 32 33 34 35 36 37 38 39 40 41 42 43 44 45 46 47 48 49 50
419
ASUS45 KBOU 241207
RWRCO

WEATHER ROUNDUP FOR COLORADO
NATIONAL WEATHER SERVICE DENVER/BOULDER CO
500 AM MST TUE JAN 24 2017

NOTE: "FAIR" INDICATES FEW OR NO CLOUDS BELOW 12000 FEET WITH NO
SIGNIFICANT WEATHER AND/OR OBSTRUCTIONS TO VISIBILITY.

COZ001>005-013-030-031-241300-
...NORTHWEST COLORADO...

CITY           SKY/WX    TMP DP  RH WIND       PRES   REMARKS
CRAIG          FLURRIES  25  19  78 W8        29.55R WCI  16
HAYDEN         CLOUDY    23  16  74 CALM      29.53R
MEEKER         LGT SNOW  26  22  84 SW6       29.55R VSB 3/4 WCI  19
MOUNT WERNER   NOT AVBL
STEAMBOAT SPGS NOT AVBL
WALDEN           N/A      7   1  78 E9        29.50R WCI  -7
$$

COZ006>008-011-241300-
...WEST CENTRAL VALLEYS...

CITY           SKY/WX    TMP DP  RH WIND       PRES   REMARKS
GRAND JUNCTION CLOUDY    31  29  92 N6        29.58R WCI  25
MONTROSE       CLOUDY    29  23  78 N3        29.58S
EAGLE          FAIR      14  12  92 CALM      29.57R
RIFLE          CLOUDY    26  25  96 CALM      29.57R
DELTA          MOCLDY    31  28  87 NE5       29.57S WCI  26
NUCLA          MOCLDY    28  25  86 CALM      29.61R
$$

COZ017>023-064>068-241300-
...SOUTHWEST COLORADO...

CITY           SKY/WX    TMP DP  RH WIND       PRES   REMARKS
DURANGO        CLOUDY    20  18  92 CALM      29.57F
CORTEZ         LGT SNOW  25  24  96 NE3       29.60S FOG
PAGOSA SPRINGS LGT SNOW  24  24  99 CALM      29.54S
TELLURIDE      CLOUDY    19  17  93 CALM      29.52S
WOLF CREEK PAS CLOUDY     9   7  92 SW3       29.50F
$$

COZ009-010-012-014-032>034-037-058>063-241300-
...CENTRAL COLORADO...

CITY           SKY/WX    TMP DP  RH WIND       PRES   REMARKS
ASPEN          FAIR      14  10  84 SW3       29.51R
BUENA VISTA    FAIR       8   4  83 CALM      29.53R
COPPER MTN     CLOUDY    10   3  72 MISG      29.44F
BERTHOUD PASS  CLOUDY     3  -8  60 MISG      29.43R
COTTONWOOD PAS MOCLDY    19   5  53 W7        29.49R WCI  10
GUNNISON       LGT SNOW  13  10  88 CALM      29.55F FOG
KREMMLING      FAIR      12   5  73 CALM      29.54S
LEADVILLE      FAIR       3  -2  79 SW3       29.46S
MONARCH PASS   CLOUDY     9   3  78 CALM      29.55S
SALIDA         FAIR      19  13  77 N8        29.60R WCI   9
SUNLIGHT       CLOUDY    10   9  92 SW6       29.53R WCI   1
WILKERSON PASS FAIR     N/A N/A N/A W5        29.48S
$$

COZ069>075-241300-
...SAN LUIS VALLEY/SANGRE DE CRISTO MOUNTAINS...

CITY           SKY/WX    TMP DP  RH WIND       PRES   REMARKS
ALAMOSA        MOCLDY    17  16  95 S6        29.50F WCI   9
LA VETA PASS   CLOUDY    19  16  86 NE13G21   29.48F WCI   7
SAGUACHE       CLOUDY    19  14  79 N6        29.52F WCI  11
$$

COZ035-036-038>040-241300-
...NORTHERN COLORADO FRONT RANGE...

CITY           SKY/WX    TMP DP  RH WIND       PRES   REMARKS
DENVER INTL AP CLOUDY    31  27  85 CALM      29.49R
DMNS CITY PARK   N/A     32  27  80 N2        29.50S
AURORA         CLOUDY    30  29  99 N5        29.50R WCI  25
FRONT RANGE AP CLOUDY    32  30  93 NW5       29.49S WCI  27
ERIE MUNI ARPT FAIR      24  23  96 CALM      29.51R
BOULDER MUN AP FAIR      28  23  80 CALM      29.50R
CENTENNIAL     FAIR      25  23  92 CALM      29.48F
BROOMFIELD     MOCLDY    30  28  93 CALM      29.50R
FORT COLLINS   FAIR      25  25 100 NW5       29.50S WCI  19
LONGMONT       FAIR      25  22  90 SW3       29.53R
$$

COZ041-046-047-076>085-087-088-241300-
...PIKES PEAK/PALMER DIVIDE AND SOUTHERN FOOTHILLS...

CITY           SKY/WX    TMP DP  RH WIND       PRES   REMARKS
COLO. SPRINGS  FAIR      25  17  72 NE7       29.45F WCI  17
A. F. ACADEMY  FAIR      24  18  78 N8        29.44F WCI  15
SCHRIEVER AFB  FAIR      27  22  80 N9        29.45F WCI  18
ELLICOTT       FAIR     N/A N/A N/A CALM      29.43F
FALCON         FAIR      27  20  75 N8        29.44F WCI  19
FORT CARSON    FAIR      33  15  48 VRB5      29.43F WCI  28
LIMON          FAIR      28  26  92 NW13      29.45F WCI  17
MONUMENT HILL  CLOUDY    25  25 100 NW6       29.46F FOG     WCI  18
TRINIDAD       FAIR      33  23  66 W5        29.48F WCI  29
$$

COZ042>045-048>051-090-091-241300-
...NORTHEAST COLORADO...

CITY           SKY/WX    TMP DP  RH WIND       PRES   REMARKS
GREELEY ARPT   FAIR      25  24  96 CALM      29.51S
AKRON          FOG       29  27  92 N15       29.49R VSB 3/4 WCI  18
BURLINGTON     MOCLDY    30  29  96 NW17      29.43S WCI  18
WRAY           NOT AVBL
STERLING       CLOUDY    32  30  93 N13       29.50S WCI  22
HOLYOKE        FOG       34  32  93 N16       29.49F VSB 1/2 WCI  23
FORT MORGAN    CLOUDY    31  29  92 N13       29.51R WCI  21
$$

COZ086-089-092>099-241300-
...SOUTHEAST COLORADO...

CITY           SKY/WX    TMP DP  RH WIND       PRES   REMARKS
PUEBLO         FAIR      34  21  59 NW9       29.45F WCI  27
LA JUNTA       FAIR      38  30  73 W14       29.45F
LAMAR          MOCLDY    35  30  82 SW8       29.43S WCI  29
SPRINGFIELD      N/A     34  30  85 W7        29.46R WCI  28
$$




USA.gov is the U.S. government's official web portal to all federal, state and local government web resources and services.